Time,TemperatureF,DewpointF,PressureIn,WindDirection,WindDirectionDegrees,WindSpeedMPH,WindSpeedGustMPH,Humidity,HourlyPrecipIn,Conditions,Clouds,dailyrainin,SoftwareType,DateUTC
2013-06-18 00:13:00,54.9,51.0,29.98,SE,131,0.0,0.0,86,0.00,,,0.09,weatherlink.com 1.10,2013-06-17 23:13:00,
2013-06-18 00:43:00,53.9,50.0,29.97,SE,131,0.0,0.0,87,0.00,,,0.09,weatherlink.com 1.10,2013-06-17 23:43:00,
2013-06-18 00:58:00,53.4,50.0,29.97,SE,131,0.0,0.0,88,0.00,,,0.09,weatherlink.com 1.10,2013-06-17 23:58:00,
2013-06-18 01:13:00,53.0,50.0,29.96,North,11,0.0,0.0,88,0.00,,,0.09,weatherlink.com 1.10,2013-06-18 00:13:00,
2013-06-18 01:28:00,52.7,50.0,29.96,NW,323,0.0,0.0,89,0.00,,,0.09,weatherlink.com 1.10,2013-06-18 00:28:00,
2013-06-18 01:43:00,52.7,50.0,29.96,NW,319,0.0,0.0,90,0.00,,,0.09,weatherlink.com 1.10,2013-06-18 00:43:00,
2013-06-18 01:58:00,52.5,50.0,29.96,NNW,329,0.0,0.0,90,0.00,,,0.09,weatherlink.com 1.10,2013-06-18 00:58:00,
2013-06-18 02:13:00,52.4,50.0,29.96,NNW,329,0.0,0.0,90,0.00,,,0.09,weatherlink.com 1.10,2013-06-18 01:13:00,
2013-06-18 02:28:00,52.1,49.0,29.97,NNW,329,0.0,0.0,90,0.00,,,0.09,weatherlink.com 1.10,2013-06-18 01:28:00,
2013-06-18 02:43:00,51.9,49.0,29.97,NNW,328,0.0,0.0,90,0.00,,,0.09,weatherlink.com 1.10,2013-06-18 01:43:00,
2013-06-18 02:58:00,51.7,49.0,29.96,NW,326,0.0,0.0,90,0.00,,,0.09,weatherlink.com 1.10,2013-06-18 01:58:00,
2013-06-18 03:13:00,51.4,49.0,29.96,NW,318,0.0,0.0,90,0.00,,,0.09,weatherlink.com 1.10,2013-06-18 02:13:00,
2013-06-18 03:28:00,51.2,49.0,29.95,WNW,293,0.0,0.0,91,0.00,,,0.09,weatherlink.com 1.10,2013-06-18 02:28:00,
2013-06-18 03:43:00,51.0,49.0,29.95,NW,304,0.0,0.0,91,0.00,,,0.09,weatherlink.com 1.10,2013-06-18 02:43:00,
2013-06-18 03:58:00,50.8,48.0,29.95,NW,304,0.0,0.0,91,0.00,,,0.00,weatherlink.com 1.10,2013-06-18 02:58:00,
2013-06-18 04:13:00,50.6,48.0,29.95,NW,306,0.0,0.0,91,0.00,,,0.00,weatherlink.com 1.10,2013-06-18 03:13:00,
2013-06-18 04:28:00,50.4,48.0,29.95,West,274,0.0,0.0,92,0.00,,,0.00,weatherlink.com 1.10,2013-06-18 03:28:00,
2013-06-18 04:43:00,50.2,48.0,29.94,WNW,289,0.0,0.0,92,0.00,,,0.00,weatherlink.com 1.10,2013-06-18 03:43:00,
2013-06-18 04:58:00,49.9,48.0,29.94,WNW,289,0.0,0.0,92,0.00,,,0.00,weatherlink.com 1.10,2013-06-18 03:58:00,
2013-06-18 05:13:00,49.7,48.0,29.94,NW,304,0.0,0.0,92,0.00,,,0.00,weatherlink.com 1.10,2013-06-18 04:13:00,
2013-06-18 05:28:00,49.8,48.0,29.94,West,262,0.0,0.0,92,0.00,,,0.00,weatherlink.com 1.10,2013-06-18 04:28:00,
2013-06-18 05:43:00,50.3,48.0,29.94,West,262,0.0,0.0,92,0.00,,,0.00,weatherlink.com 1.10,2013-06-18 04:43:00,
2013-06-18 05:58:00,51.3,49.0,29.94,NW,307,0.0,0.0,92,0.00,,,0.00,weatherlink.com 1.10,2013-06-18 04:58:00,
2013-06-18 06:13:00,52.4,50.0,29.93,WNW,288,0.0,0.0,91,0.00,,,0.00,weatherlink.com 1.10,2013-06-18 05:13:00,
2013-06-18 06:28:00,54.0,51.0,29.93,NW,316,0.0,0.0,90,0.00,,,0.00,weatherlink.com 1.10,2013-06-18 05:28:00,
2013-06-18 06:43:00,54.7,51.0,29.93,West,274,0.0,3.0,87,0.00,,,0.00,weatherlink.com 1.10,2013-06-18 05:43:00,
2013-06-18 06:58:00,55.5,51.0,29.94,West,260,0.0,3.0,86,0.00,,,0.00,weatherlink.com 1.10,2013-06-18 05:58:00,
2013-06-18 07:13:00,56.3,52.0,29.94,NNE,25,0.0,3.0,84,0.00,,,0.00,weatherlink.com 1.10,2013-06-18 06:13:00,
2013-06-18 07:28:00,56.3,52.0,29.94,NW,309,0.0,0.0,84,0.00,,,0.00,weatherlink.com 1.10,2013-06-18 06:28:00,
2013-06-18 07:43:00,56.5,51.0,29.95,NNW,335,0.0,5.0,83,0.00,,,0.00,weatherlink.com 1.10,2013-06-18 06:43:00,
2013-06-18 07:58:00,56.2,51.0,29.94,WNW,301,3.0,5.0,83,0.00,,,0.00,weatherlink.com 1.10,2013-06-18 06:58:00,
2013-06-18 08:13:00,56.1,51.0,29.95,NW,314,4.0,4.0,83,0.00,,,0.00,weatherlink.com 1.10,2013-06-18 07:13:00,
2013-06-18 08:28:00,56.3,52.0,29.95,WNW,287,1.0,2.0,84,0.00,,,0.00,weatherlink.com 1.10,2013-06-18 07:28:00,
2013-06-18 08:43:00,57.6,52.0,29.95,North,9,1.0,4.0,82,0.00,,,0.00,weatherlink.com 1.10,2013-06-18 07:43:00,
2013-06-18 08:58:00,58.5,52.0,29.95,NW,317,0.0,7.0,80,0.00,,,0.00,weatherlink.com 1.10,2013-06-18 07:58:00,
2013-06-18 09:13:00,59.2,53.0,29.94,NW,326,3.0,7.0,79,0.00,,,0.00,weatherlink.com 1.10,2013-06-18 08:13:00,
2013-06-18 09:29:00,60.5,53.0,29.94,WSW,258,1.0,5.0,77,0.00,,,0.00,weatherlink.com 1.10,2013-06-18 08:29:00,
2013-06-18 09:44:00,61.9,54.0,29.93,NE,34,0.0,6.0,74,0.00,,,0.00,weatherlink.com 1.10,2013-06-18 08:44:00,
2013-06-18 09:59:00,63.5,53.0,29.93,West,262,2.0,5.0,69,0.00,,,0.00,weatherlink.com 1.10,2013-06-18 08:59:00,
2013-06-18 10:14:00,64.6,54.0,29.93,NNW,329,3.0,9.0,69,0.00,,,0.00,weatherlink.com 1.10,2013-06-18 09:14:00,
2013-06-18 10:29:00,66.3,55.0,29.93,NW,319,3.0,4.0,68,0.00,,,0.00,weatherlink.com 1.10,2013-06-18 09:29:00,
2013-06-18 10:44:00,66.9,55.0,29.93,ENE,63,4.0,6.0,65,0.00,,,0.00,weatherlink.com 1.10,2013-06-18 09:44:00,
2013-06-18 10:59:00,66.4,54.0,29.93,NNE,20,1.0,6.0,65,0.00,,,0.00,weatherlink.com 1.10,2013-06-18 09:59:00,
2013-06-18 11:14:00,64.9,54.0,29.93,NNW,343,1.0,8.0,67,0.00,,,0.00,weatherlink.com 1.10,2013-06-18 10:14:00,
2013-06-18 11:29:00,64.9,53.0,29.93,WSW,243,2.0,5.0,65,0.00,,,0.00,weatherlink.com 1.10,2013-06-18 10:29:00,
2013-06-18 11:44:00,65.0,53.0,29.93,NE,34,2.0,5.0,66,0.00,,,0.00,weatherlink.com 1.10,2013-06-18 10:44:00,
2013-06-18 11:59:00,65.4,53.0,29.93,WSW,240,3.0,6.0,64,0.00,,,0.00,weatherlink.com 1.10,2013-06-18 10:59:00,
2013-06-18 12:14:00,65.3,54.0,29.93,WSW,246,2.0,7.0,67,0.00,,,0.00,weatherlink.com 1.10,2013-06-18 11:14:00,
2013-06-18 12:29:00,65.5,53.0,29.93,West,260,2.0,7.0,65,0.00,,,0.00,weatherlink.com 1.10,2013-06-18 11:29:00,
2013-06-18 12:44:00,66.2,53.0,29.93,NW,319,2.0,6.0,63,0.00,,,0.00,weatherlink.com 1.10,2013-06-18 11:44:00,
2013-06-18 12:59:00,66.9,54.0,29.94,NW,316,1.0,5.0,63,0.00,,,0.00,weatherlink.com 1.10,2013-06-18 11:59:00,
2013-06-18 13:14:00,67.1,54.0,29.93,West,271,1.0,7.0,63,0.00,,,0.00,weatherlink.com 1.10,2013-06-18 12:14:00,
2013-06-18 13:29:00,67.7,54.0,29.93,NW,321,2.0,5.0,62,0.00,,,0.00,weatherlink.com 1.10,2013-06-18 12:29:00,
2013-06-18 13:44:00,68.1,54.0,29.93,West,277,0.0,5.0,61,0.00,,,0.00,weatherlink.com 1.10,2013-06-18 12:44:00,
2013-06-18 13:59:00,67.4,56.0,29.93,SSE,150,4.0,7.0,66,0.00,,,0.00,weatherlink.com 1.10,2013-06-18 12:59:00,
2013-06-18 14:15:00,67.7,56.0,29.93,South,184,4.0,4.0,67,0.00,,,0.00,weatherlink.com 1.10,2013-06-18 13:15:00,
2013-06-18 15:32:00,63.4,53.0,29.93,SE,127,7.0,9.0,69,0.00,,,0.00,weatherlink.com 1.10,2013-06-18 14:32:00,
2013-06-18 15:44:00,63.4,53.0,29.93,SE,128,1.0,7.0,69,0.00,,,0.00,weatherlink.com 1.10,2013-06-18 14:44:00,
2013-06-18 15:59:00,63.7,52.0,29.93,SE,135,5.0,10.0,66,0.00,,,0.00,weatherlink.com 1.10,2013-06-18 14:59:00,
2013-06-18 16:14:00,64.1,52.0,29.93,SSE,168,5.0,10.0,66,0.00,,,0.00,weatherlink.com 1.10,2013-06-18 15:14:00,
2013-06-18 16:29:00,64.8,53.0,29.93,SE,139,3.0,8.0,65,0.00,,,0.00,weatherlink.com 1.10,2013-06-18 15:29:00,
2013-06-18 16:44:00,64.4,53.0,29.93,SSE,152,3.0,9.0,66,0.00,,,0.00,weatherlink.com 1.10,2013-06-18 15:44:00,
2013-06-18 16:59:00,64.9,53.0,29.93,SE,124,4.0,7.0,66,0.00,,,0.00,weatherlink.com 1.10,2013-06-18 15:59:00,
2013-06-18 17:14:00,64.1,52.0,29.93,SE,135,4.0,9.0,66,0.00,,,0.00,weatherlink.com 1.10,2013-06-18 16:14:00,
2013-06-18 17:30:00,64.5,53.0,29.93,SE,131,3.0,7.0,67,0.00,,,0.00,weatherlink.com 1.10,2013-06-18 16:30:00,
2013-06-18 17:44:00,64.3,53.0,29.93,SE,144,5.0,8.0,68,0.00,,,0.00,weatherlink.com 1.10,2013-06-18 16:44:00,
2013-06-18 18:00:00,64.3,54.0,29.92,SSE,154,3.0,6.0,69,0.00,,,0.00,weatherlink.com 1.10,2013-06-18 17:00:00,
2013-06-18 18:15:00,63.3,53.0,29.92,ESE,108,6.0,7.0,70,0.00,,,0.00,weatherlink.com 1.10,2013-06-18 17:15:00,
2013-06-18 18:30:00,63.9,54.0,29.92,SE,128,2.0,5.0,70,0.00,,,0.00,weatherlink.com 1.10,2013-06-18 17:30:00,
2013-06-18 18:45:00,63.6,54.0,29.92,East,98,0.0,6.0,71,0.00,,,0.00,weatherlink.com 1.10,2013-06-18 17:45:00,
2013-06-18 19:00:00,63.2,54.0,29.92,ESE,103,4.0,6.0,71,0.00,,,0.00,weatherlink.com 1.10,2013-06-18 18:00:00,
2013-06-18 19:15:00,63.0,53.0,29.93,SE,129,1.0,5.0,70,0.00,,,0.00,weatherlink.com 1.10,2013-06-18 18:15:00,
2013-06-18 19:30:00,63.4,54.0,29.93,SE,132,1.0,1.0,71,0.00,,,0.00,weatherlink.com 1.10,2013-06-18 18:30:00,
2013-06-18 19:45:00,63.8,55.0,29.93,SE,136,0.0,2.0,72,0.00,,,0.00,weatherlink.com 1.10,2013-06-18 18:45:00,
2013-06-18 20:00:00,64.1,54.0,29.93,SE,138,0.0,2.0,70,0.00,,,0.00,weatherlink.com 1.10,2013-06-18 19:00:00,
2013-06-18 20:15:00,64.5,55.0,29.93,SSE,150,2.0,3.0,70,0.00,,,0.00,weatherlink.com 1.10,2013-06-18 19:15:00,
2013-06-18 20:30:00,63.7,54.0,29.93,ESE,103,1.0,2.0,71,0.00,,,0.00,weatherlink.com 1.10,2013-06-18 19:30:00,
2013-06-18 20:45:00,63.5,54.0,29.94,NNE,23,0.0,0.0,72,0.00,,,0.00,weatherlink.com 1.10,2013-06-18 19:45:00,
2013-06-18 21:00:00,65.0,55.0,29.94,SE,131,0.0,0.0,69,0.00,,,0.00,weatherlink.com 1.10,2013-06-18 20:00:00,
2013-06-18 21:15:00,64.5,55.0,29.94,North,356,0.0,0.0,70,0.00,,,0.00,weatherlink.com 1.10,2013-06-18 20:15:00,
2013-06-18 21:30:00,63.9,54.0,29.95,NW,312,0.0,0.0,71,0.00,,,0.00,weatherlink.com 1.10,2013-06-18 20:30:00,
2013-06-18 21:45:00,64.6,56.0,29.95,NNW,348,2.0,5.0,73,0.00,,,0.00,weatherlink.com 1.10,2013-06-18 20:45:00,
2013-06-18 22:00:00,64.1,56.0,29.96,WSW,248,1.0,5.0,74,0.00,,,0.00,weatherlink.com 1.10,2013-06-18 21:00:00,
2013-06-18 22:15:00,63.5,55.0,29.96,NNE,27,0.0,5.0,74,0.00,,,0.00,weatherlink.com 1.10,2013-06-18 21:15:00,
2013-06-18 22:30:00,62.9,55.0,29.96,NNW,330,1.0,5.0,74,0.00,,,0.00,weatherlink.com 1.10,2013-06-18 21:30:00,
2013-06-18 22:45:00,62.3,54.0,29.96,WNW,294,1.0,7.0,74,0.00,,,0.00,weatherlink.com 1.10,2013-06-18 21:45:00,
2013-06-18 23:00:00,61.8,53.0,29.96,NNW,330,0.0,7.0,74,0.00,,,0.00,weatherlink.com 1.10,2013-06-18 22:00:00,
2013-06-18 23:15:00,61.4,53.0,29.96,NNW,339,0.0,5.0,75,0.00,,,0.00,weatherlink.com 1.10,2013-06-18 22:15:00,
2013-06-18 23:30:00,60.8,53.0,29.96,WNW,284,1.0,5.0,76,0.00,,,0.00,weatherlink.com 1.10,2013-06-18 22:30:00,
2013-06-18 23:45:00,60.4,53.0,29.97,WNW,288,0.0,4.0,77,0.00,,,0.00,weatherlink.com 1.10,2013-06-18 22:45:00,